RH
75 72 79 68 68 75 77 80 81 82 82 86 87 76 71 68 66 73 86 69 59 50 44 46 46 52 49 49 47 49 54 61 56 51 48 44 41 34 33 36 31 28 42 31 31
81 86 83 73 77 76 73 73 76 81 82 85 82 72 70 69 55 67 61 59 52 50 41 46 56 47 48 45 48 50 54 49 53 52 50 37 37 36 31 28 28 26 26 26 32
85 89 92 78 82 69 66 68 74 78 84 89 77 73 77 73 49 62 55 59 57 48 46 43 41 41 44 46 44 48 51 52 50 42 38 35 34 35 28 27 24 25 25 30 38
81 81 83 72 74 68 66 75 73 86 84 85 75 74 69 60 53 55 57 60 55 47 44 40 36 42 46 44 42 48 45 46 47 36 35 34 33 31 35 26 26 28 31 34 40
68 70 70 68 70 70 71 76 77 84 82 80 80 67 55 61 65 45 60 61 43 39 40 34 37 40 41 37 38 44 47 39 39 33 33 32 33 32 33 26 28 28 31 37 48
70 70 72 74 73 72 78 80 78 87 87 88 81 70 57 67 47 54 62 44 43 41 44 40 34 37 36 39 39 45 42 38 35 34 42 38 40 40 25 34 30 30 35 51 56
67 72 76 79 79 75 82 82 80 80 84 87 86 61 62 69 57 62 45 42 42 44 39 43 43 34 35 38 38 37 32 39 40 41 42 50 30 39 31 33 30 34 49 70 76
70 78 79 83 81 83 78 75 78 80 78 85 67 60 63 53 64 52 45 38 37 38 40 44 34 37 36 36 33 30 33 27 39 39 49 33 22 23 37 31 32 35 47 75 81
77 78 81 90 87 83 76 75 76 71 63 64 66 60 66 48 54 58 50 44 42 40 47 37 44 53 49 46 48 37 30 41 42 50 49 52 33 31 41 36 35 39 54 78 84
78 77 78 79 80 79 76 69 75 72 72 62 64 63 58 62 62 59 54 44 41 40 40 46 56 64 69 72 56 33 45 42 47 57 65 59 54 46 45 38 41 44 70 87 87
78 78 77 76 79 76 77 84 84 81 78 79 76 71 69 61 58 56 58 48 43 53 52 60 77 82 76 72 57 46 55 59 59 69 71 68 68 53 54 53 52 52 66 89 89
77 77 75 76 74 78 88 93 95 83 79 74 72 68 67 67 56 55 50 45 54 66 55 65 81 69 63 60 56 53 60 64 57 66 76 77 72 51 56 64 63 61 72 88 86
75 78 77 74 74 84 93 96 90 89 81 66 70 64 64 55 62 59 57 59 59 64 65 59 64 58 60 68 63 78 63 77 77 78 78 80 55 34 57 80 81 81 79 87 86
79 80 79 75 76 93 88 80 90 89 89 75 66 54 56 62 58 53 56 58 62 62 67 67 60 62 60 74 74 57 78 80 85 83 68 74 59 47 72 66 83 89 89 88 87
78 80 80 76 85 84 79 85 88 72 94 68 66 49 55 55 56 51 56 56 70 72 52 69 76 73 68 74 77 74 75 84 87 90 90 83 93 58 76 67 67 85 88 88 87
77 77 77 77 84 87 83 86 72 83 95 74 65 62 61 62 62 58 57 58 61 64 71 78 69 77 76 70 73 76 85 72 88 90 86 83 92 69 62 64 70 69 81 82 84
81 78 74 73 78 86 83 69 87 94 67 71 71 65 70 69 65 64 68 74 70 59 78 66 76 77 71 82 82 80 72 78 65 81 71 90 98 79 67 60 67 61 68 79 85
78 74 71 71 90 86 70 76 91 86 84 66 67 65 73 68 71 72 74 85 78 71 92 72 56 77 72 83 82 89 72 79 46 71 72 83 91 57 63 76 72 70 72 80 84
72 87 87 87 86 79 73 94 87 80 68 69 68 69 75 68 72 73 80 77 77 79 61 82 72 75 73 75 75 86 92 74 87 94 95 89 69 48 61 68 72 79 82 81 83
88 91 88 88 86 76 89 87 85 69 65 65 67 73 79 80 78 79 82 75 70 71 75 74 75 81 74 75 80 84 73 82 88 56 57 74 67 64 42 50 75 82 84 82 82
86 80 85 90 76 80 93 86 77 68 68 69 76 76 75 79 78 81 77 74 72 75 76 81 74 83 84 85 83 93 93 90 80 77 84 75 63 62 53 57 65 74 78 80 80
91 83 89 90 83 95 93 74 67 70 71 73 72 68 73 76 77 79 75 73 65 64 77 80 80 91 81 80 79 83 83 84 79 69 94 87 79 54 52 58 76 77 75 77 78
85 88 92 74 83 96 83 80 69 73 74 72 70 65 70 72 74 73 74 71 64 70 76 71 76 76 46 62 85 87 87 85 77 79 88 79 50 45 78 74 69 75 71 74 73
70 77 76 85 86 79 79 80 78 72 70 68 72 70 73 75 75 72 75 71 74 75 68 68 82 58 40 34 68 88 86 88 81 96 86 66 43 32 34 38 38 51 66 72 76
80 84 83 84 77 79 77 78 78 76 76 74 75 74 74 77 77 78 75 82 78 77 82 77 83 90 83 77 72 65 65 82 92 77 80 47 59 38 36 40 41 48 48 54 54
73 73 83 84 75 75 77 77 67 77 72 75 77 72 76 74 64 65 68 79 73 89 84 88 87 93 97 84 89 91 83 78 70 70 80 73 71 47 44 45 52 54 58 55 54
95 88 68 76 76 63 70 73 65 62 67 66 69 72 76 68 72 71 67 67 74 84 88 90 94 90 89 83 82 72 68 69 84 85 72 78 58 49 53 50 51 54 54 54 52
Wind_Speed
13 9 14 14 14 11 9 6 6 6 3 17 19 16 13 7 3 4 8 6 6 10 5 2 1 2 4 4 4 2 6 3 7 7 4 2 3 1 1 2 3 3 4 3 2
12 17 15 16 16 14 13 9 4 5 6 18 18 18 14 10 8 10 8 12 11 8 4 3 4 3 5 3 4 6 4 7 2 2 4 3 2 1 2 3 2 3 2 3 3
18 16 24 20 17 12 12 8 3 3 9 15 16 16 11 2 6 4 13 14 10 6 1 1 3 3 5 4 5 3 2 3 2 2 2 3 3 1 4 3 5 5 4 1 2
17 19 18 19 17 13 13 8 9 19 21 15 10 12 6 2 5 4 17 16 11 3 3 4 5 5 5 5 3 7 4 3 1 4 3 3 2 2 2 2 3 4 2 2 4
20 19 16 16 16 15 12 8 14 20 22 15 7 6 3 8 2 6 19 13 3 4 4 3 5 4 5 4 3 5 1 4 3 7 5 1 2 3 6 6 5 4 3 2 4
19 17 17 15 13 11 8 14 20 22 20 11 6 9 5 9 4 8 9 6 6 4 4 7 4 3 7 5 5 3 5 3 6 5 4 4 2 4 1 1 5 4 1 3 6
16 15 13 10 10 8 17 16 19 20 18 9 7 3 13 3 4 8 7 4 4 2 5 4 2 4 4 5 4 2 5 3 6 3 4 3 3 6 4 1 5 6 4 5 4
14 17 18 18 15 18 19 20 18 16 14 6 6 3 6 1 4 7 8 4 6 5 6 3 7 8 5 3 7 5 5 3 4 6 4 3 8 1 3 4 6 5 3 5 3
21 20 21 21 21 15 15 17 18 15 7 8 4 4 4 8 6 6 4 3 3 4 8 4 8 5 6 5 5 7 3 1 1 5 4 3 6 3 3 3 8 8 4 7 4
17 14 16 17 15 13 10 13 14 6 4 7 3 5 6 3 5 5 5 4 7 3 6 10 7 6 6 7 4 4 3 1 1 5 4 4 13 11 7 7 11 9 4 7 6
12 12 13 11 14 13 6 4 6 7 14 2 3 3 2 7 3 7 4 4 5 10 5 6 11 4 2 3 2 6 4 1 1 2 4 4 10 18 7 9 11 10 8 8 8
11 11 14 12 16 10 5 5 2 2 6 5 3 3 0 2 7 13 7 6 7 5 4 9 5 1 1 5 6 6 3 2 4 2 2 4 16 19 8 6 7 8 9 10 6
8 10 9 8 6 8 4 5 2 4 6 7 3 4 4 6 5 9 6 3 6 7 6 7 3 1 3 5 5 4 3 1 2 7 0 8 9 6 1 1 1 1 4 5 8
10 10 8 8 7 4 4 5 3 3 7 11 9 6 5 2 6 2 4 3 7 4 4 7 3 3 4 5 3 1 2 1 2 5 3 4 8 8 3 6 2 3 4 7 7
10 8 12 10 4 3 2 4 5 5 8 7 7 3 4 7 2 9 3 7 5 4 4 2 2 4 6 1 0 2 1 2 1 3 4 3 3 11 3 6 7 8 8 8 8
8 10 10 5 3 1 1 0 3 9 2 5 4 5 4 6 4 4 5 8 4 6 7 2 1 2 2 2 2 2 3 5 5 3 3 4 4 9 4 5 3 4 9 8 8
6 8 5 1 2 2 2 3 6 8 4 1 3 3 3 5 5 4 4 5 4 7 5 5 2 2 1 3 2 4 6 5 7 6 6 2 2 14 6 7 4 5 9 9 7
5 4 2 1 0 3 3 6 11 4 3 1 2 4 5 4 3 3 3 3 3 4 4 5 6 2 1 1 2 1 4 7 5 2 6 4 8 9 6 4 7 5 7 7 7
3 4 3 4 1 3 5 9 7 5 3 4 2 5 4 3 3 4 3 2 1 2 4 4 4 2 2 1 3 2 1 3 7 2 3 4 10 12 6 8 5 7 4 8 8
3 2 4 3 3 5 7 5 2 3 1 2 3 1 2 1 3 2 1 1 0 1 2 4 3 1 0 1 3 1 5 3 3 2 6 7 7 9 6 7 5 8 10 10 8
4 3 3 3 4 6 6 2 2 1 2 2 3 3 2 2 2 1 1 1 2 1 2 4 4 3 2 5 7 2 1 4 3 4 4 5 10 8 6 3 7 9 9 10 9
3 3 1 2 6 2 2 3 1 0 2 1 2 2 4 3 2 2 4 4 5 5 3 1 4 4 6 1 3 3 6 6 5 4 3 2 13 3 7 7 5 8 9 8 8
2 2 0 2 4 2 2 3 3 2 1 2 2 1 2 4 3 3 3 2 5 5 6 4 1 3 7 5 1 4 5 4 4 3 7 5 10 2 5 5 6 8 9 9 9
3 3 4 4 1 6 3 2 3 1 2 2 2 2 2 1 1 4 3 2 3 2 5 4 2 6 8 4 4 4 6 7 6 4 5 14 22 21 16 16 16 9 10 10 10
4 0 2 1 4 4 3 2 1 1 1 1 2 2 3 2 0 2 2 1 2 3 3 4 4 3 6 9 6 12 12 8 13 14 11 14 12 23 18 17 16 8 9 9 12
3 3 3 1 3 2 2 3 5 2 3 1 1 1 2 3 6 4 4 3 5 3 3 2 2 1 6 8 6 10 14 17 18 18 19 22 27 25 22 14 11 11 10 10 11
1 1 3 3 2 2 3 5 7 6 2 2 4 3 2 5 3 3 3 2 1 7 6 4 2 4 6 5 8 9 9 13 4 5 10 13 13 10 11 11 10 11 10 11 11
Wind_Direction
5 339 1 198 181 170 146 151 168 182 206 156 150 140 142 148 138 23 52 318 334 341 352 289 56 76 55 68 44 104 65 145 183 161 166 187 123 15 341 86 52 20 117 121 106
26 3 314 139 134 129 109 101 105 153 165 158 141 141 139 135 86 59 353 348 335 359 39 90 106 84 56 56 24 71 89 189 151 138 158 123 102 110 68 17 68 59 51 95 52
38 18 55 100 94 90 90 75 111 149 120 147 132 132 127 73 73 314 339 342 325 354 161 87 102 73 67 49 8 38 100 153 30 81 87 104 92 11 122 241 215 178 165 124 65
62 51 34 52 64 64 57 47 129 115 102 85 88 112 104 18 130 267 332 332 321 332 159 111 52 57 73 77 15 91 37 32 28 7 63 84 350 357 197 234 154 110 91 135 80
44 45 46 43 32 35 37 69 114 123 115 112 36 29 57 50 29 303 325 323 335 65 43 91 76 115 93 93 62 73 116 50 57 45 61 44 47 291 264 246 247 299 330 82 119
44 38 33 30 39 27 41 94 117 120 106 94 354 329 73 76 284 313 317 334 36 56 32 36 102 116 95 68 68 77 89 71 30 26 48 25 325 16 299 16 213 228 122 78 115
40 39 37 51 45 57 91 101 101 118 117 142 284 349 65 91 323 317 346 5 359 55 83 34 37 66 121 102 160 99 73 67 21 11 32 1 277 238 254 26 126 122 104 109 108
40 52 51 58 75 89 83 80 95 109 121 109 8 354 79 301 282 13 346 8 24 39 96 47 78 94 54 102 36 59 56 79 12 8 353 21 272 319 315 185 197 158 163 169 149
60 57 56 51 59 66 63 72 69 75 87 173 11 66 57 331 25 321 15 28 358 31 40 72 67 72 29 68 37 14 150 184 43 35 346 44 273 259 8 211 240 240 274 190 169
65 53 53 66 57 46 49 60 75 45 337 47 17 51 12 335 308 333 340 28 59 11 27 38 51 73 34 47 195 175 114 50 284 342 4 294 268 267 253 234 241 244 218 193 200
43 65 46 41 50 34 20 42 15 22 36 60 244 81 1 298 299 1 360 357 37 48 53 17 66 70 22 15 58 101 86 71 308 26 338 248 277 278 252 241 252 241 203 205 212
43 49 64 68 57 40 76 80 332 96 86 40 73 78 146 288 42 359 15 67 51 64 348 28 78 228 50 58 73 49 77 338 292 317 349 333 288 277 256 238 234 245 203 196 198
20 25 23 31 40 55 80 104 180 227 87 14 19 30 342 32 57 346 26 64 74 48 18 102 155 344 93 45 68 40 108 27 244 321 229 319 290 307 283 186 322 322 181 164 196
13 16 23 334 52 316 19 320 29 14 80 348 348 21 358 352 51 335 15 100 41 115 73 78 331 100 77 67 98 112 211 100 2 35 269 22 279 301 323 287 221 206 187 200 208
13 38 14 36 131 80 290 340 1 28 71 316 324 287 359 79 205 347 356 35 75 60 76 277 34 56 66 187 204 165 110 34 49 70 23 6 62 269 334 282 241 217 223 225 222
8 8 356 14 43 119 278 50 54 42 47 330 316 350 43 22 30 325 43 49 130 71 35 81 260 56 128 80 66 103 64 40 48 71 19 267 118 282 245 232 290 215 223 225 229
1 3 33 355 287 280 351 87 50 83 271 331 56 54 72 20 40 47 33 28 92 75 360 348 346 318 120 84 33 67 53 338 352 10 226 336 19 248 267 248 238 249 231 225 226
330 20 338 76 159 354 50 57 67 246 258 294 43 48 69 10 34 39 69 46 64 78 107 131 325 156 134 124 160 105 140 149 223 262 276 7 240 256 211 241 252 255 221 210 229
348 346 7 356 40 60 66 55 170 210 173 124 82 77 24 25 107 64 48 151 209 168 115 116 303 290 185 141 108 151 43 149 100 35 16 257 288 293 252 271 238 250 242 235 234
93 37 330 335 32 55 72 100 58 199 161 60 88 75 126 30 68 60 3 202 173 172 138 187 62 321 349 114 25 152 157 59 6 11 299 293 278 245 313 311 246 254 244 252 249
68 60 294 349 36 40 88 131 143 222 213 118 148 112 118 129 104 108 159 294 202 170 92 145 104 283 45 202 180 132 233 60 116 152 191 301 266 214 237 282 253 254 257 253 254
102 50 280 50 48 38 77 121 167 53 355 34 99 109 139 157 122 165 197 225 176 157 152 190 135 196 208 107 165 179 195 161 132 229 228 157 271 262 251 273 270 278 277 267 236
91 145 20 117 98 12 164 115 156 153 193 170 154 160 188 161 130 181 185 272 170 155 166 187 16 14 348 4 9 220 200 170 110 96 200 149 262 288 272 274 251 254 272 258 248
85 40 342 55 148 117 121 124 134 137 147 140 131 103 109 108 10 174 167 177 188 133 119 94 150 192 198 203 138 215 205 197 167 160 199 227 272 262 280 286 290 273 260 263 257
30 166 175 320 355 102 103 147 101 345 24 53 63 136 144 139 41 219 162 117 52 151 74 115 233 188 258 252 238 249 243 203 207 216 212 258 241 278 290 289 290 275 274 274 271
96 112 13 51 324 101 359 189 164 191 152 269 195 143 185 192 193 221 159 198 207 42 143 25 267 66 274 265 246 261 246 230 231 237 249 262 276 278 278 292 292 280 273 273 271
338 357 98 338 24 80 236 192 202 151 206 208 183 141 224 238 218 242 208 95 181 157 174 145 123 25 273 344 294 286 252 203 188 224 218 230 240 296 299 301 290 279 272 262 262